Weather History for Port Isabel, TX

Change the Weather History Date:

Sunday, February 3, 2013

  Actual Average Record
Temperature  
Mean Temperature 68 °F -  
Max Temperature 75 °F - - ()
Min Temperature 61 °F - - ()
Cooling Degree Days 3    
Growing Degree Days 18 (Base 50)    
Moisture  
Dew Point 59 °F    
Average Humidity 72    
Maximum Humidity 93    
Minimum Humidity 51    
Precipitation  
Precipitation 0.00 in - - ()
Sea Level Pressure  
Sea Level Pressure 30.18 in    
Wind  
Wind Speed 6 mph (East)    
Max Wind Speed 17 mph    
Max Gust Speed -    
Visibility 10 miles    
Events      
T = Trace of Precipitation, MM = Missing Value Source: NWS Daily Summary

Daily Weather History Graph

Daily Weather History Graph

Search for Another Location

Airport:

Trip Planner

Search our weather history database for the weather conditions in past years. The results will help you decide how hot, cold, wet, or windy it might be!

Date:

Astronomy

Feb. 03, 2013 Rise Set
Actual Time 7:12 AM CST 6:14 PM CST
Civil Twilight 6:48 AM CST 6:38 PM CST
Nautical Twilight 6:20 AM CST 7:05 PM CST
Astronomical Twilight 5:53 AM CST 7:33 PM CST
Moon 12:40 AM CST (2/3) 11:55 AM CST (2/3)
Length of Visible Light 11h 49m
Length of Day
11h 01m
Waning Gibbous, 48% of the Moon is Illuminated
Feb 3
Waning Gibbous
Feb 10
New
Feb 17
First Quarter
Feb 25
Full
Mar 4
Last Quarter

Hourly Weather History & Observations

Time (CST) Temp. Dew Point Humidity Pressure Visibility Wind Dir Wind Speed Gust Speed Precip Events Conditions
12:53 AM 66.0 °F 60.1 °F 81% 30.23 in 10.0 mi Calm Calm - N/A   Mostly Cloudy
1:53 AM 63.0 °F 59.0 °F 87% 30.22 in 10.0 mi ESE 4.6 mph - N/A   Partly Cloudy
2:53 AM 63.0 °F 59.0 °F 87% 30.22 in 10.0 mi East 4.6 mph - N/A   Mostly Cloudy
3:53 AM 64.0 °F 60.1 °F 87% 30.22 in 10.0 mi Calm Calm - N/A   Mostly Cloudy
4:53 AM 63.0 °F 59.0 °F 87% 30.23 in 10.0 mi Calm Calm - N/A   Scattered Clouds
5:53 AM 62.1 °F 57.9 °F 86% 30.24 in 9.0 mi Calm Calm - N/A   Scattered Clouds
6:53 AM 61.0 °F 57.0 °F 87% 30.25 in 9.0 mi East 4.6 mph - N/A   Partly Cloudy
7:53 AM 62.1 °F 60.1 °F 93% 30.26 in 5.0 mi SE 3.5 mph - N/A   Scattered Clouds
8:53 AM 70.0 °F 61.0 °F 73% 30.27 in 10.0 mi ESE 4.6 mph - N/A   Clear
9:53 AM 73.0 °F 57.9 °F 59% 30.28 in 10.0 mi ESE 8.1 mph - N/A   Clear
10:53 AM 73.9 °F 57.9 °F 57% 30.28 in 9.0 mi East 6.9 mph - N/A   Clear
11:53 AM 75.0 °F 55.9 °F 51% 30.26 in 10.0 mi East 8.1 mph - N/A   Clear
12:53 PM 75.0 °F 57.9 °F 55% 30.22 in 9.0 mi ENE 10.4 mph - N/A   Clear
1:53 PM 73.9 °F 57.9 °F 57% 30.19 in 10.0 mi ENE 12.7 mph - N/A   Clear
2:53 PM 73.0 °F 55.9 °F 55% 30.16 in 9.0 mi East 17.3 mph - N/A   Clear
3:53 PM 73.0 °F 57.9 °F 59% 30.14 in 9.0 mi ENE 12.7 mph - N/A   Clear
4:53 PM 71.1 °F 60.1 °F 68% 30.13 in 10.0 mi ENE 12.7 mph - N/A   Clear
5:53 PM 70.0 °F 60.1 °F 71% 30.12 in 10.0 mi East 11.5 mph - N/A   Clear
6:53 PM 68.0 °F 60.1 °F 76% 30.10 in 10.0 mi East 10.4 mph - N/A   Clear
7:53 PM 68.0 °F 60.1 °F 76% 30.10 in 10.0 mi East 10.4 mph - N/A   Clear
8:53 PM 68.0 °F 57.9 °F 70% 30.10 in 10.0 mi ESE 13.8 mph - N/A   Clear
9:53 PM 69.1 °F 57.9 °F 68% 30.08 in 10.0 mi ESE 11.5 mph - N/A   Clear
10:53 PM 68.0 °F 57.9 °F 70% 30.07 in 10.0 mi SE 11.5 mph - N/A   Clear
11:53 PM 66.9 °F 57.0 °F 70% 30.04 in 10.0 mi SE 10.4 mph - N/A   Clear